[[{"header":{"parameterUnit":"m.s-1","parameterCategory":1,"la1":30.2991,"la2":30.254,"lo1":-89.0895,"lo2":-89.0444,"dy":0.0017,"dx":0.0017,"nx":28,"ny":28,"refTime":"2025-06-21T09:00:00:Z","depth":0,"parameterNumber":2,"parameterNumberName":"U-component_of_WINDS"},"data":[0,0,0,0,0,0,0,0,0,0,0,0,0,0,0,0,0,0,0,0,0,0,0,0,0,0,0,0,0,0,0,0,0,0,0,0,0,0,0,0,0,0,0,0,0,0,0,0,0,0,0,0,0,0,0,0,0,0,-1.1467,-1.1466,0,-1.1397,-1.1396,-1.1395,-1.1338,-1.1338,-1.1337,-1.1337,-1.1264,-1.1263,-1.1261,0,0,0,0,0,0,0,0,0,0,0,0,0,-1.1551,-1.1549,-1.1467,-1.1466,-1.1465,-1.1397,-1.1396,-1.1395,-1.1339,-1.1338,-1.1337,-1.1336,-1.1264,-1.1263,-1.1261,0,0,0,0,0,0,0,0,0,0,0,0,0,-1.1501,-1.1549,-1.1467,-1.1428,-1.1424,-1.1397,-1.1396,-1.1395,-1.1339,-1.1338,-1.1337,-1.1336,-1.1265,-1.1263,-1.1261,-1.1266,0,0,-1.1255,-1.1254,0,0,0,0,0,0,0,0,-1.1504,-1.1498,-1.1435,-1.1431,-1.1426,-1.1375,-1.1399,-1.1351,-1.1339,-1.1371,-1.1337,-1.1336,-1.1302,-1.1297,-1.1285,-1.1262,-1.1259,-1.1254,-1.1253,-1.1252,-1.1252,0,0,0,0,0,0,0,-1.1507,-1.15,-1.1439,-1.1434,-1.1429,-1.1415,-1.1407,-1.139,-1.1342,-1.1368,-1.1364,-1.1357,-1.1299,-1.1288,-1.1283,-1.1258,-1.1254,-1.1253,-1.1251,-1.125,-1.1237,-1.1237,0,0,0,0,0,0,-1.1517,-1.1504,-1.1441,-1.1437,-1.1464,-1.1414,-1.1405,-1.1393,-1.1342,-1.1334,-1.1357,-1.1354,-1.1292,-1.1286,-1.128,-1.1284,-1.1252,-1.125,-1.1249,-1.1236,-1.1237,-1.1238,0,0,0,0,0,0,-1.1519,-1.1512,-1.1444,-1.1469,-1.1459,-1.1413,-1.14,-1.1392,-1.138,-1.1334,-1.1325,-1.1354,-1.1291,-1.1283,-1.127,-1.128,-1.1249,-1.1247,-1.1235,-1.1236,-1.1237,-1.129,0,0,0,0,0,0,-1.1521,-1.1513,-1.1514,-1.147,-1.1458,-1.1435,-1.1401,-1.1391,-1.1377,-1.1372,-1.1329,-1.1321,-1.1289,-1.1274,-1.1268,-1.1277,-1.1246,-1.1234,-1.1235,-1.1237,-1.1287,-1.1293,-1.1298,0,0,0,0,0,-1.1525,-1.1531,-1.1514,-1.1507,-1.1459,-1.1436,-1.1429,-1.1394,-1.1378,-1.1379,-1.135,-1.1322,-1.128,-1.1273,-1.1266,-1.1274,-1.1233,-1.1235,-1.1237,-1.1284,-1.1291,-1.1297,0,0,0,0,0,0,-1.1577,-1.1524,-1.1505,-1.1498,-1.1472,-1.1426,-1.1426,-1.1402,-1.138,-1.1376,-1.1332,-1.1323,-1.1315,-1.1293,-1.1286,-1.1277,-1.1253,-1.1254,-1.1291,-1.1298,-1.1303,-1.1309,-1.1244,0,0,0,0,0,-1.1588,-1.1574,-1.1528,-1.1526,-1.1514,-1.1473,-1.1461,-1.1436,-1.1407,-1.1396,-1.1365,-1.1338,-1.1319,-1.1307,-1.1286,-1.1283,-1.1273,-1.1286,-1.1291,-1.1296,-1.1297,-1.1295,-1.13,-1.1244,-1.1244,-1.1244,0,0,-1.161,-1.158,-1.1573,-1.1536,-1.1513,-1.1499,-1.1464,-1.145,-1.144,-1.1393,-1.138,-1.1356,-1.1323,-1.1315,-1.131,-1.1297,-1.131,-1.1298,-1.1302,-1.1301,-1.1297,-1.1303,-1.1307,-1.1246,-1.1245,-1.1245,0,0,-1.1644,-1.1619,-1.1615,-1.1593,-1.1558,-1.1531,-1.153,-1.1488,-1.1472,-1.1457,-1.1422,-1.1409,-1.1376,-1.1354,-1.1339,-1.1366,-1.134,-1.136,-1.1388,-1.1386,-1.1391,-1.1395,-1.1405,-1.1409,-1.1361,-1.1361,-1.1362,0,-1.1676,-1.1654,-1.1616,-1.1605,-1.159,-1.1548,-1.1544,-1.1524,-1.1485,-1.1475,-1.1461,-1.142,-1.1395,-1.1382,-1.1388,-1.1377,-1.1375,-1.1365,-1.1393,-1.1397,-1.14,-1.1409,-1.1413,-1.1364,-1.1364,-1.1364,-1.1363,0,-1.1695,-1.168,-1.1681,-1.1645,-1.163,-1.1623,-1.1584,-1.1573,-1.1549,-1.1524,-1.151,-1.1478,-1.1451,-1.1446,-1.1422,-1.143,-1.1423,-1.1402,-1.1377,-1.1408,-1.1416,-1.142,-1.1368,-1.1367,-1.1366,-1.1366,0,0,-1.1759,-1.1703,-1.1704,-1.1688,-1.1647,-1.1635,-1.1626,-1.1601,-1.1593,-1.1567,-1.1559,-1.1533,-1.1513,-1.1496,-1.1469,-1.1468,-1.1492,-1.1447,-1.1445,-1.1457,-1.15,-1.1517,-1.1521,-1.1475,-1.1475,-1.1476,-1.1503,0,-1.1787,-1.1769,-1.1735,-1.1727,-1.1714,-1.1674,-1.1666,-1.1641,-1.1617,-1.1602,-1.1575,-1.1558,-1.1533,-1.1522,-1.1519,-1.149,-1.15,-1.1488,-1.1467,-1.1467,-1.1477,-1.1525,-1.1543,-1.157,-1.1506,-1.1506,-1.1507,0,-1.1817,-1.1795,-1.1786,-1.1748,-1.1741,-1.1734,-1.1709,-1.1695,-1.1665,-1.1648,-1.1629,-1.16,-1.1589,-1.1566,-1.155,-1.1542,-1.1531,-1.1516,-1.1516,-1.1513,-1.1489,-1.1525,-1.1578,-1.1582,-1.1511,-1.1511,-1.151,0,-1.1866,-1.1834,-1.1825,-1.1812,-1.1766,-1.1763,-1.1744,-1.1714,-1.1701,-1.1678,-1.1669,-1.1645,-1.1632,-1.1615,-1.158,-1.1567,-1.1568,-1.1542,-1.1554,-1.1555,-1.1556,-1.1557,-1.1609,-1.1549,-1.1549,-1.1548,-1.1548,0,-1.1901,-1.1898,-1.1847,-1.1841,-1.1836,-1.1797,-1.1794,-1.1771,-1.1744,-1.1734,-1.1698,-1.1689,-1.1644,-1.1629,-1.1602,-1.1594,-1.1588,-1.1574,-1.1567,-1.1577,-1.1579,-1.157,-1.1568,-1.1549,-1.1549,-1.1549,-1.1549,0,-1.1955,-1.1921,-1.1909,-1.1867,-1.1856,-1.1855,-1.1819,-1.1813,-1.1787,-1.1774,-1.1769,-1.1728,-1.1709,-1.1673,-1.1645,-1.1626,-1.1624,-1.1611,-1.1634,-1.163,-1.1644,-1.1644,-1.1693,-1.1698,-1.1634,-1.1635,-1.1635,0,-1.198,-1.1977,-1.1935,-1.1926,-1.1908,-1.1893,-1.188,-1.1842,-1.183,-1.1796,-1.1794,-1.1773,-1.1754,-1.1726,-1.1694,-1.1672,-1.1659,-1.1678,-1.1655,-1.1666,-1.166,-1.1661,-1.1661,-1.1683,-1.1684,-1.1684,-1.1685,0,-1.2028,-1.2012,-1.1994,-1.1971,-1.1957,-1.1937,-1.1915,-1.1909,-1.1866,-1.1854,-1.1835,-1.182,-1.1791,-1.1771,-1.1745,-1.1724,-1.1698,-1.1692,-1.1694,-1.1705,-1.1719,-1.1713,-1.1649,-1.1691,-1.1691,-1.169,-1.169,-1.169,-1.2069,-1.2065,-1.2035,-1.2017,-1.1997,-1.1977,-1.1969,-1.1943,-1.1926,-1.19,-1.1878,-1.1862,-1.1833,-1.1795,-1.1776,-1.1763,-1.175,-1.1752,-1.1752,-1.1754,-1.1759,-1.1721,-1.1757,-1.1757,-1.1757,-1.1757,-1.1757,0,-1.2117,-1.2096,-1.2079,-1.205,-1.2036,-1.2013,-1.1987,-1.1977,-1.1963,-1.1939,-1.1921,-1.19,-1.188,-1.1847,-1.1824,-1.182,-1.1807,-1.1815,-1.1815,-1.1811,-1.1771,-1.1772,-1.1826,-1.1826,-1.1826,-1.1826,-1.1826,-1.1826,-1.214,-1.2131,-1.2111,-1.2093,-1.2071,-1.2055,-1.2043,-1.2025,-1.2005,-1.1983,-1.1967,-1.1945,-1.1917,-1.1893,-1.1874,-1.1864,-1.1858,-1.1871,-1.1857,-1.1821,-1.1814,-1.1808,-1.1809,-1.1869,-1.1869,-1.1899,-1.1899,-1.1899]},{"header":{"parameterUnit":"m.s-1","parameterCategory":1,"la1":30.2991,"la2":30.254,"lo1":-89.0895,"lo2":-89.0444,"dy":0.0017,"dx":0.0017,"nx":28,"ny":28,"refTime":"2025-06-21T09:00:00:Z","depth":0,"parameterNumber":3,"parameterNumberName":"V-component_of_WINDS"},"data":[0,0,0,0,0,0,0,0,0,0,0,0,0,0,0,0,0,0,0,0,0,0,0,0,0,0,0,0,0,0,0,0,0,0,0,0,0,0,0,0,0,0,0,0,0,0,0,0,0,0,0,0,0,0,0,0,0,0,3.7635,3.7634,0,3.756,3.756,3.7559,3.7488,3.7487,3.7486,3.7486,3.7405,3.7404,3.7402,0,0,0,0,0,0,0,0,0,0,0,0,0,3.7713,3.7712,3.7635,3.7634,3.7633,3.7561,3.7559,3.7558,3.7488,3.7487,3.7486,3.7485,3.7406,3.7404,3.7402,0,0,0,0,0,0,0,0,0,0,0,0,0,3.7663,3.7712,3.7635,3.759,3.7585,3.7561,3.7559,3.7558,3.7489,3.7487,3.7486,3.7485,3.7406,3.7404,3.7402,3.7416,0,0,3.7396,3.7395,0,0,0,0,0,0,0,0,3.7666,3.766,3.7597,3.7593,3.7587,3.7532,3.7557,3.751,3.7489,3.7525,3.7486,3.7484,3.7448,3.7443,3.7431,3.7412,3.7409,3.7396,3.7395,3.7394,3.7393,0,0,0,0,0,0,0,3.7669,3.7663,3.7605,3.7596,3.759,3.7572,3.7563,3.7548,3.7495,3.7522,3.7516,3.7509,3.7445,3.7434,3.7429,3.7408,3.7396,3.7394,3.7393,3.7392,3.7395,3.7396,0,0,0,0,0,0,3.768,3.7666,3.7608,3.7603,3.7624,3.7571,3.7562,3.7551,3.7495,3.7485,3.751,3.7506,3.7438,3.7431,3.7426,3.7437,3.7394,3.7392,3.7391,3.7394,3.7395,3.7397,0,0,0,0,0,0,3.7682,3.7676,3.7611,3.7633,3.7624,3.7571,3.756,3.755,3.7539,3.7486,3.7476,3.7508,3.7436,3.7429,3.7419,3.7434,3.7391,3.7389,3.7392,3.7394,3.7396,3.7462,0,0,0,0,0,0,3.7685,3.7677,3.7683,3.7634,3.7623,3.7607,3.7561,3.755,3.7536,3.753,3.7481,3.7472,3.7435,3.7422,3.7417,3.743,3.7388,3.7391,3.7393,3.7395,3.7458,3.7466,3.7472,0,0,0,0,0,3.7688,3.7703,3.7683,3.7677,3.7629,3.7608,3.7601,3.7559,3.7537,3.7542,3.7508,3.7474,3.7434,3.7422,3.7415,3.7428,3.739,3.7393,3.7395,3.7455,3.7464,3.7472,0,0,0,0,0,0,3.7753,3.7696,3.7673,3.7673,3.7646,3.7596,3.76,3.757,3.7547,3.7542,3.749,3.7479,3.7475,3.7451,3.7439,3.7438,3.7407,3.7408,3.7454,3.7463,3.747,3.7475,3.7386,0,0,0,0,0,3.7768,3.7757,3.7707,3.7712,3.77,3.7653,3.7642,3.7612,3.7581,3.7568,3.7534,3.7504,3.7484,3.7472,3.7451,3.7455,3.7442,3.746,3.7467,3.7473,3.7475,3.7474,3.7481,3.7406,3.7406,3.7406,0,0,3.7798,3.7765,3.7761,3.7724,3.77,3.7688,3.7643,3.7633,3.7623,3.7566,3.7555,3.7529,3.7492,3.7489,3.7485,3.7468,3.7493,3.7477,3.7482,3.748,3.7478,3.7485,3.7491,3.7408,3.7408,3.7407,0,0,3.7846,3.7821,3.7822,3.7798,3.7762,3.7731,3.7731,3.7686,3.7666,3.7655,3.7612,3.7599,3.7567,3.7542,3.7525,3.7565,3.7532,3.756,3.7596,3.7596,3.7602,3.7607,3.762,3.7625,3.7562,3.7562,3.7562,0,3.7887,3.7869,3.7826,3.7818,3.7803,3.7753,3.7753,3.7732,3.769,3.768,3.7662,3.762,3.7592,3.7582,3.7592,3.758,3.7578,3.7564,3.7605,3.7609,3.7613,3.7625,3.763,3.7566,3.7565,3.7565,3.7564,0,3.7921,3.7909,3.7914,3.7876,3.7862,3.7858,3.7813,3.7803,3.7775,3.7746,3.7734,3.7699,3.7669,3.7665,3.7637,3.7651,3.7641,3.7615,3.7582,3.7624,3.7634,3.7639,3.7571,3.7569,3.7568,3.7567,0,0,3.8006,3.7946,3.7948,3.7931,3.7887,3.7876,3.787,3.7843,3.7835,3.7809,3.7801,3.7776,3.7751,3.7732,3.77,3.77,3.7733,3.7673,3.7672,3.7685,3.7745,3.7764,3.777,3.7712,3.7712,3.7713,3.7747,0,3.8046,3.8033,3.7994,3.7992,3.798,3.7933,3.7927,3.7899,3.7872,3.7856,3.7825,3.7808,3.7777,3.7765,3.7763,3.773,3.7744,3.7727,3.7702,3.7702,3.7711,3.7775,3.7795,3.7829,3.7751,3.7752,3.7752,0,3.809,3.8067,3.8065,3.8022,3.8015,3.8011,3.7983,3.797,3.7937,3.7917,3.7897,3.7862,3.7852,3.7823,3.7806,3.7796,3.7783,3.7765,3.7766,3.776,3.7728,3.777,3.7839,3.7844,3.7758,3.7758,3.7757,0,3.8151,3.812,3.8114,3.8101,3.8051,3.8049,3.8028,3.7994,3.7981,3.7956,3.7946,3.792,3.7906,3.7886,3.7845,3.7828,3.7833,3.78,3.7814,3.7815,3.7816,3.7816,3.7883,3.7811,3.7811,3.7811,3.7811,0,3.8198,3.8198,3.8141,3.8137,3.8136,3.8091,3.809,3.8065,3.8035,3.8025,3.7982,3.7973,3.792,3.7905,3.7873,3.7863,3.7857,3.784,3.7831,3.7843,3.7845,3.7833,3.7828,3.7812,3.7812,3.7812,3.7812,0,3.8265,3.8227,3.8218,3.8172,3.8161,3.8161,3.8122,3.8116,3.8086,3.8074,3.8068,3.8021,3.8,3.7958,3.7926,3.7904,3.7902,3.7887,3.7913,3.7908,3.7923,3.7922,3.7983,3.7988,3.7915,3.7916,3.7917,0,3.8297,3.8296,3.8251,3.8242,3.8223,3.8208,3.8194,3.8151,3.8138,3.8101,3.8099,3.8076,3.8054,3.8023,3.7985,3.796,3.7943,3.7967,3.7939,3.7951,3.7942,3.7942,3.7941,3.7972,3.7973,3.7974,3.7975,0,3.8357,3.8339,3.8321,3.8297,3.8282,3.8261,3.8237,3.8232,3.8182,3.8169,3.8149,3.8133,3.81,3.8077,3.8046,3.8023,3.799,3.7984,3.7986,3.7997,3.8012,3.8003,3.7928,3.7983,3.7982,3.7981,3.7981,3.7981,3.8406,3.8403,3.8371,3.8353,3.8331,3.831,3.8302,3.8272,3.8255,3.8226,3.8201,3.8182,3.8149,3.8105,3.8084,3.8067,3.8051,3.8054,3.8054,3.8055,3.806,3.8016,3.8062,3.8061,3.8061,3.8061,3.8061,0,3.8463,3.844,3.8424,3.8393,3.8379,3.8352,3.8324,3.8313,3.8298,3.827,3.8251,3.8227,3.8204,3.8165,3.8139,3.8133,3.8118,3.8128,3.8127,3.8122,3.8076,3.8077,3.8141,3.8141,3.8141,3.8141,3.8141,3.8141,3.8491,3.8484,3.8462,3.8443,3.842,3.8402,3.8389,3.8369,3.8347,3.8322,3.8304,3.8279,3.8247,3.8218,3.8195,3.8184,3.8176,3.8191,3.8175,3.8132,3.8125,3.8118,3.8118,3.819,3.819,3.8221,3.8222,3.8222]}]]